Time,TemperatureF,DewpointF,PressureIn,WindDirection,WindDirectionDegrees,WindSpeedMPH,WindSpeedGustMPH,Humidity,HourlyPrecipIn,Conditions,Clouds,dailyrainin,SolarRadiationWatts/m^2,SoftwareType,DateUTC
2013-11-08 00:03:00,43.0,27.0,-100.00,WNW,295,3.0,5.0,52,0.00,,,0.00,0.000000,,2013-11-08 06:03:00,
2013-11-08 00:42:00,40.0,24.0,-100.00,SSE,160,1.0,4.0,52,-99.99,,,0.00,0.000000,,2013-11-08 06:42:00,
2013-11-08 00:52:00,40.0,24.0,-100.00,SSE,160,1.0,4.0,52,-99.99,,,0.00,0.000000,,2013-11-08 06:52:00,
2013-11-08 01:02:00,40.0,24.0,-100.00,SSE,160,1.0,4.0,52,-99.99,,,0.00,0.000000,,2013-11-08 07:02:00,
2013-11-08 01:11:00,40.0,24.0,-100.00,SSE,160,1.0,4.0,52,-99.99,,,0.00,0.000000,,2013-11-08 07:11:00,
2013-11-08 01:42:00,39.0,24.0,-100.00,ESE,111,1.0,2.0,55,0.00,,,0.00,0.000000,,2013-11-08 07:42:00,
2013-11-08 01:52:00,39.0,24.0,-100.00,ESE,111,1.0,2.0,55,0.00,,,0.00,0.000000,,2013-11-08 07:52:00,
2013-11-08 02:02:00,39.0,24.0,-100.00,ESE,111,1.0,2.0,55,0.00,,,0.00,0.000000,,2013-11-08 08:02:00,
2013-11-08 02:12:00,39.0,24.0,-100.00,ESE,111,1.0,2.0,55,0.00,,,0.00,0.000000,,2013-11-08 08:12:00,
2013-11-08 02:42:00,35.0,29.0,-100.00,South,174,4.0,5.0,78,0.00,,,0.00,0.000000,,2013-11-08 08:42:00,
2013-11-08 02:52:00,35.0,29.0,-100.00,South,174,4.0,5.0,78,0.00,,,0.00,0.000000,,2013-11-08 08:52:00,
2013-11-08 03:03:00,35.0,29.0,-100.00,South,174,4.0,5.0,78,0.00,,,0.00,0.000000,,2013-11-08 09:03:00,
2013-11-08 03:12:00,35.0,29.0,-100.00,South,174,4.0,5.0,78,0.00,,,0.00,0.000000,,2013-11-08 09:12:00,
2013-11-08 03:43:00,35.0,28.0,-100.00,South,175,3.0,6.0,76,0.00,,,0.00,0.000000,,2013-11-08 09:43:00,
2013-11-08 03:54:00,35.0,28.0,-100.00,South,175,3.0,6.0,76,0.00,,,0.00,0.000000,,2013-11-08 09:54:00,
2013-11-08 04:03:00,35.0,28.0,-100.00,South,175,3.0,6.0,76,0.00,,,0.00,0.000000,,2013-11-08 10:03:00,
2013-11-08 04:12:00,35.0,28.0,-100.00,South,175,3.0,6.0,76,0.00,,,0.00,0.000000,,2013-11-08 10:12:00,
2013-11-08 04:43:00,34.0,29.0,-100.00,SSE,167,4.0,6.0,81,0.00,,,0.00,0.000000,,2013-11-08 10:43:00,
2013-11-08 04:53:00,34.0,29.0,-100.00,SSE,167,4.0,6.0,81,0.00,,,0.00,0.000000,,2013-11-08 10:53:00,
2013-11-08 05:02:00,34.0,29.0,-100.00,SSE,167,4.0,6.0,81,0.00,,,0.00,0.000000,,2013-11-08 11:02:00,
2013-11-08 05:12:00,34.0,29.0,-100.00,SSE,167,4.0,6.0,81,0.00,,,0.00,0.000000,,2013-11-08 11:12:00,
2013-11-08 05:42:00,33.0,29.0,-100.00,SE,143,3.0,6.0,84,0.00,,,0.00,0.000000,,2013-11-08 11:42:00,
2013-11-08 05:52:00,33.0,29.0,-100.00,SE,143,3.0,6.0,84,0.00,,,0.00,0.000000,,2013-11-08 11:52:00,
2013-11-08 06:02:00,33.0,29.0,-100.00,SE,143,3.0,6.0,84,0.00,,,0.00,0.000000,,2013-11-08 12:02:00,
2013-11-08 06:11:00,33.0,29.0,-100.00,SE,143,3.0,6.0,84,0.00,,,0.00,0.000000,,2013-11-08 12:11:00,
2013-11-08 06:42:00,33.0,28.0,-100.00,SSE,158,3.0,6.0,82,0.00,,,0.00,0.000000,,2013-11-08 12:42:00,
2013-11-08 06:52:00,33.0,28.0,-100.00,SSE,158,3.0,6.0,82,0.00,,,0.00,0.000000,,2013-11-08 12:52:00,
2013-11-08 07:01:00,33.0,28.0,-100.00,SSE,158,3.0,6.0,82,0.00,,,0.00,0.000000,,2013-11-08 13:01:00,
2013-11-08 07:11:00,33.0,28.0,-100.00,SSE,158,3.0,6.0,82,0.00,,,0.00,0.000000,,2013-11-08 13:11:00,
2013-11-08 07:42:00,35.0,28.0,-100.00,SE,143,4.0,7.0,76,0.00,,,0.00,11.000000,,2013-11-08 13:42:00,
2013-11-08 07:52:00,35.0,28.0,-100.00,SE,143,4.0,7.0,76,0.00,,,0.00,11.000000,,2013-11-08 13:52:00,
2013-11-08 08:02:00,35.0,28.0,-100.00,SE,143,4.0,7.0,76,0.00,,,0.00,11.000000,,2013-11-08 14:02:00,
2013-11-08 08:11:00,35.0,28.0,-100.00,SE,143,4.0,7.0,76,0.00,,,0.00,11.000000,,2013-11-08 14:11:00,
2013-11-08 08:42:00,42.0,29.0,-100.00,SSE,159,4.0,9.0,60,0.00,,,0.00,189.000000,,2013-11-08 14:42:00,
2013-11-08 08:52:00,42.0,29.0,-100.00,SSE,159,4.0,9.0,60,0.00,,,0.00,189.000000,,2013-11-08 14:52:00,
2013-11-08 09:01:00,42.0,29.0,-100.00,SSE,159,4.0,9.0,60,0.00,,,0.00,189.000000,,2013-11-08 15:01:00,
2013-11-08 09:11:00,42.0,29.0,-100.00,SSE,159,4.0,9.0,60,0.00,,,0.00,189.000000,,2013-11-08 15:11:00,
2013-11-08 09:13:00,47.0,30.0,-100.00,South,182,5.0,11.0,51,0.00,,,0.00,385.000000,,2013-11-08 15:13:00,
2013-11-08 09:44:00,47.0,30.0,-100.00,South,182,5.0,11.0,51,0.00,,,0.00,385.000000,,2013-11-08 15:44:00,
2013-11-08 09:53:00,47.0,30.0,-100.00,South,182,5.0,11.0,51,0.00,,,0.00,385.000000,,2013-11-08 15:53:00,
2013-11-08 10:03:00,47.0,30.0,-100.00,South,182,5.0,11.0,51,0.00,,,0.00,385.000000,,2013-11-08 16:03:00,
2013-11-08 10:42:00,54.0,34.0,-100.00,South,179,6.0,15.0,46,0.00,,,0.00,559.000000,,2013-11-08 16:42:00,
2013-11-08 10:53:00,54.0,34.0,-100.00,South,179,6.0,15.0,46,0.00,,,0.00,559.000000,,2013-11-08 16:53:00,
2013-11-08 11:02:00,54.0,34.0,-100.00,South,179,6.0,15.0,46,0.00,,,0.00,559.000000,,2013-11-08 17:02:00,
2013-11-08 11:12:00,54.0,34.0,-100.00,South,179,6.0,15.0,46,0.00,,,0.00,559.000000,,2013-11-08 17:12:00,
2013-11-08 11:43:00,59.0,35.0,-100.00,South,176,6.0,11.0,40,0.00,,,0.00,674.000000,,2013-11-08 17:43:00,
2013-11-08 11:53:00,59.0,35.0,-100.00,South,176,6.0,11.0,40,0.00,,,0.00,674.000000,,2013-11-08 17:53:00,
2013-11-08 12:02:00,59.0,35.0,-100.00,South,176,6.0,11.0,40,0.00,,,0.00,674.000000,,2013-11-08 18:02:00,
2013-11-08 12:12:00,59.0,35.0,-100.00,South,176,6.0,11.0,40,0.00,,,0.00,674.000000,,2013-11-08 18:12:00,
2013-11-08 12:43:00,62.0,35.0,-100.00,South,187,9.0,20.0,36,0.00,,,0.00,713.000000,,2013-11-08 18:43:00,
2013-11-08 13:02:00,62.0,35.0,-100.00,South,187,9.0,20.0,36,0.00,,,0.00,713.000000,,2013-11-08 19:02:00,
2013-11-08 13:12:00,62.0,35.0,-100.00,South,187,9.0,20.0,36,0.00,,,0.00,713.000000,,2013-11-08 19:12:00,
2013-11-08 13:42:00,64.0,34.0,-100.00,South,182,9.0,18.0,32,0.00,,,0.00,710.000000,,2013-11-08 19:42:00,
2013-11-08 13:53:00,64.0,34.0,-100.00,South,182,9.0,18.0,32,0.00,,,0.00,710.000000,,2013-11-08 19:53:00,
2013-11-08 14:02:00,64.0,34.0,-100.00,South,182,9.0,18.0,32,0.00,,,0.00,710.000000,,2013-11-08 20:02:00,
2013-11-08 14:12:00,64.0,34.0,-100.00,South,182,9.0,18.0,32,0.00,,,0.00,710.000000,,2013-11-08 20:12:00,
2013-11-08 14:42:00,63.0,31.0,-100.00,South,185,9.0,20.0,30,0.00,,,0.00,506.000000,,2013-11-08 20:42:00,
2013-11-08 14:53:00,63.0,31.0,-100.00,South,185,9.0,20.0,30,0.00,,,0.00,506.000000,,2013-11-08 20:53:00,
2013-11-08 15:02:00,63.0,31.0,-100.00,South,185,9.0,20.0,30,0.00,,,0.00,506.000000,,2013-11-08 21:02:00,
2013-11-08 15:12:00,63.0,31.0,-100.00,South,185,9.0,20.0,30,0.00,,,0.00,506.000000,,2013-11-08 21:12:00,
2013-11-08 15:13:00,65.0,32.0,-100.00,South,182,9.0,20.0,29,0.00,,,0.00,472.000000,,2013-11-08 21:13:00,
2013-11-08 15:44:00,65.0,32.0,-100.00,South,182,9.0,20.0,29,0.00,,,0.00,472.000000,,2013-11-08 21:44:00,
2013-11-08 15:54:00,65.0,32.0,-100.00,South,182,9.0,20.0,29,0.00,,,0.00,472.000000,,2013-11-08 21:54:00,
2013-11-08 16:04:00,65.0,32.0,-100.00,South,182,9.0,20.0,29,0.00,,,0.00,472.000000,,2013-11-08 22:04:00,
2013-11-08 16:43:00,62.0,33.0,-100.00,South,178,9.0,18.0,33,0.00,,,0.00,193.000000,,2013-11-08 22:43:00,
2013-11-08 16:53:00,62.0,33.0,-100.00,South,178,9.0,18.0,33,0.00,,,0.00,193.000000,,2013-11-08 22:53:00,
2013-11-08 17:03:00,62.0,33.0,-100.00,South,178,9.0,18.0,33,0.00,,,0.00,193.000000,,2013-11-08 23:03:00,
2013-11-08 17:12:00,62.0,33.0,-100.00,South,178,9.0,18.0,33,0.00,,,0.00,193.000000,,2013-11-08 23:12:00,
2013-11-08 17:43:00,59.0,33.0,-100.00,South,175,8.0,18.0,38,0.00,,,0.00,66.000000,,2013-11-08 23:43:00,
2013-11-08 17:53:00,59.0,33.0,-100.00,South,175,8.0,18.0,38,0.00,,,0.00,66.000000,,2013-11-08 23:53:00,
2013-11-08 18:02:00,59.0,33.0,-100.00,South,175,8.0,18.0,38,0.00,,,0.00,66.000000,,2013-11-09 00:02:00,
2013-11-08 18:12:00,59.0,33.0,-100.00,South,175,8.0,18.0,38,0.00,,,0.00,66.000000,,2013-11-09 00:12:00,
2013-11-08 18:42:00,57.0,35.0,-100.00,South,176,8.0,17.0,43,0.00,,,0.00,0.000000,,2013-11-09 00:42:00,
2013-11-08 18:52:00,57.0,35.0,-100.00,South,176,8.0,17.0,43,0.00,,,0.00,0.000000,,2013-11-09 00:52:00,
2013-11-08 19:02:00,57.0,35.0,-100.00,South,176,8.0,17.0,43,0.00,,,0.00,0.000000,,2013-11-09 01:02:00,
2013-11-08 19:11:00,57.0,35.0,-100.00,South,176,8.0,17.0,43,0.00,,,0.00,0.000000,,2013-11-09 01:11:00,
2013-11-08 19:42:00,55.0,33.0,-100.00,South,172,6.0,17.0,43,0.00,,,0.00,0.000000,,2013-11-09 01:42:00,
2013-11-08 19:52:00,55.0,33.0,-100.00,South,172,6.0,17.0,43,0.00,,,0.00,0.000000,,2013-11-09 01:52:00,
2013-11-08 20:02:00,55.0,33.0,-100.00,South,172,6.0,17.0,43,0.00,,,0.00,0.000000,,2013-11-09 02:02:00,
2013-11-08 20:12:00,55.0,33.0,-100.00,South,172,6.0,17.0,43,0.00,,,0.00,0.000000,,2013-11-09 02:12:00,
2013-11-08 20:42:00,54.0,33.0,-100.00,South,185,8.0,13.0,44,0.00,,,0.00,0.000000,,2013-11-09 02:42:00,
2013-11-08 20:52:00,54.0,33.0,-100.00,South,185,8.0,13.0,44,0.00,,,0.00,0.000000,,2013-11-09 02:52:00,
2013-11-08 21:02:00,54.0,33.0,-100.00,South,185,8.0,13.0,44,0.00,,,0.00,0.000000,,2013-11-09 03:02:00,
2013-11-08 21:11:00,54.0,33.0,-100.00,South,185,8.0,13.0,44,0.00,,,0.00,0.000000,,2013-11-09 03:11:00,
2013-11-08 21:13:00,53.0,33.0,-100.00,South,181,7.0,15.0,46,0.00,,,0.00,0.000000,,2013-11-09 03:13:00,
2013-11-08 21:44:00,53.0,33.0,-100.00,South,181,7.0,15.0,46,0.00,,,0.00,0.000000,,2013-11-09 03:44:00,
2013-11-08 21:54:00,53.0,33.0,-100.00,South,181,7.0,15.0,46,0.00,,,0.00,0.000000,,2013-11-09 03:54:00,
2013-11-08 22:04:00,53.0,33.0,-100.00,South,181,7.0,15.0,46,0.00,,,0.00,0.000000,,2013-11-09 04:04:00,
2013-11-08 22:13:00,53.0,35.0,-100.00,SSW,195,9.0,17.0,51,0.00,,,0.00,0.000000,,2013-11-09 04:13:00,
2013-11-08 22:43:00,53.0,35.0,-100.00,SSW,195,9.0,17.0,51,0.00,,,0.00,0.000000,,2013-11-09 04:43:00,
2013-11-08 22:53:00,53.0,35.0,-100.00,SSW,195,9.0,17.0,51,0.00,,,0.00,0.000000,,2013-11-09 04:53:00,
2013-11-08 23:03:00,53.0,35.0,-100.00,SSW,195,9.0,17.0,51,0.00,,,0.00,0.000000,,2013-11-09 05:03:00,
2013-11-08 23:13:00,53.0,37.0,-100.00,SSW,197,9.0,21.0,55,0.00,,,0.00,0.000000,,2013-11-09 05:13:00,
2013-11-08 23:44:00,53.0,37.0,-100.00,SSW,197,9.0,21.0,55,0.00,,,0.00,0.000000,,2013-11-09 05:44:00,
2013-11-08 23:53:00,53.0,37.0,-100.00,SSW,197,9.0,21.0,55,0.00,,,0.00,0.000000,,2013-11-09 05:53:00,